Organisateur, détaillez votre épreuve !!!
Inscrivez-vous en ligne !!!
  
INSCRIVEZ VOUS ET PAYEZ EN LIGNE Engagé(e)s*
Nom de la course Lieu Insc Date Officiel Internet
La Boucle Gardannaise Gardanne Dim 13/01
10 Km de Castillon Port de Bouc Dim 20/01
La Boucle de Valtrède Chateauneuf les M. Dim 24/02
Courses Nature Septémoise Septèmes Dim 03/03
Trail des 6 Collines Cabriès Dim 10/03
Souvenir Jean Moulin Salon de Provence Dim 17/03
Officiel = MAJ manuelle, courrier+web - Internet = MAJ automatique, dès constatation des inscriptions web
Accueil Courir en France
Pour obtenir un devis, cliquez ici !!!

Classement Général au Scratch

Utilisez ce formulaire pour calculer votre vitesse
Les décimales, doivent toujours être séparées par un POINT

Distance

Heures

Minutes

Secondes

Km/h

Imprimez votre diplôme !!!
Epreuve chronométrée par courirenfrance
Toute reproduction intégrale ou partielle sans le consentement préalable de courirenfrance serait illicite et constituerait une contrefaçon sanctionnée par la loi en vigueur propre au code de la propriété intellectuelle.
Région ou Ville Distance Nom de l'Epreuve Date Rentrants
Bouc Bel Air - [13] 15 Km Trail de Bouc Bel Air 25/11/2017 500
Pl Nom Prénom Doss. Cat. Club Temps
251 MARRONY OLIVIER 279 M1M 66  COURIR A FUVEAU 1:30:59
252 ROGLIANO BENOIT 387 SEM 108  MARSEILLE 1:31:08
253 BODIN JEAN MARC 45 M1M 67  SIMIANE COLLONGUE 1:31:16
254 DIONISI ALEXANDRE 129 M1M 68  SIMIANE COLLONGUE 1:31:17
255 NERE NORDINE 322 SEM 109  MARSEILLE 1:31:20
256 VANDAME MARINE 521 SEF 17  BOUC BEL AIR 1:31:43
257 REY NICOLAS 377 M1M 69  AIX EN PROVENCE 1:31:53
258 GENDRE CYRIELLE 183 SEF 18  COUDOUX OLYMPIQUE 1:31:56
259 VINCENT PHILIPPE 460 M1M 70  MARSEILLE 1:31:57
260 CARTOUX FLORENT 86 ESM 4  ISTRES 1:32:03
261 GHARNOUT LEILA 188 M1F 11  AC SASSENAGE 1:32:18
262 GINDRE CHRISTIAN 190 M3M 1  MARSEILLE 1:32:19
263 LAVERGNE ALEX 245 M2M 40  OCC COURSE A PIED 1:32:27
264 LEMEE RONAN 255 M2M 41  CALAS 1:32:30
265 GOLEA AUDE 195 M1F 12  CADOLIVE 1:32:31
266 HAUQUIER SYLVAIN 208 SEM 110  SOLID R 1:32:36
267 VINCENT FLORENCE 458 M1F 13  AIX ATHLE PROVENCE 1:32:37
268 DESCOURS ROMAIN 125 SEM 111  A NOUS LA VICTOIRE 1:32:37
269 MORIN EMILIE 311 SEF 19  BOUC BEL AIR 1:32:38
270 FRANCOIS FREDERIC 160 M1M 71  TRAIL ECO RAID PCE 1:32:39
271 PONCET LIONEL 560 M1M 72  GARDANNE 1:32:43
272 SLECZEK IGOR 426 M2M 42  CHRONO LIBRE 1:32:45
273 EUSTACHE CARINE 147 M1F 14  TEAM 04 1:32:50
274 NOE ANNE 324 M1F 15  COURIR AU ROVE 1:32:54
275 COTTET COLETTE 106 M3F 1  GARDANNE 1:33:00
276 BREUIL EMMANUELLE 69 M1F 16  OULLINS TRIATHLON 1:33:03
277 CAPERAN CELINE 83 M1F 17  BOUC BEL AIR 1:33:09
278 CAPERAN BENOIT 82 M2M 43  EGUILLES 1:33:10
279 BOYER BEATRICE 66 M3F 2  CABBA 1:33:15
280 GALANAKIS AGNES 167 M1F 18  AIX ATHLE PROVENCE 1:33:31
281 GALANAKIS ERIC 168 M2M 44  AIX ATHLE PROVENCE 1:33:31
282 BIGAY BERTRAND 42 M2M 45  AIX ATHLE PROVENCE 1:33:49
283 LIVAR-BOUTIBONNES DELPHINE 262 SEF 20  LA FARE LES OLIVIERS 1:33:52
284 MELLADO RAOUL 293 M2M 46  BIKE BEL AIR CLUB 1:34:02
285 SIMONIN GERARD 425 M3M 2  ALLAUCH 1:34:06
286 BASSO JEROME 29 M1M 73  VANUPIEDS 1:34:10
287 TURINI OLIVIER 442 M1M 74  SEPTEMES 1:34:12
288 MANENT JEAN-BERNARD 276 M1M 75  MARSEILLE 1:34:32
289 BONNETEAU MARION 473 SEF 21  DECATH BOUC BEL AIR 1:34:39
290 CATANZARO TONI 88 SEM 112  MEYREUIL 1:34:47
291 KAMBOURIAN CLEMENT 228 SEM 113  MEYREUIL 1:34:49
292 FRADET THIBAULT 159 SEM 114  ORANGE 1:34:52
293 PRIEUR LUDOVIC 362 SEM 115  MARIGNANE 1:34:57
294 CARTOUX CELIA 85 ESF 1  KM 42 195 MARSEILLE 1:35:16
295 BELASAT BACHIR 550 SEM 116  BOUC BEL AIR 1:35:32
296 PROD HOMME ROMAIN 363 SEM 117  AIX EN PROVENCE 1:35:46
297 GASCHET JEROME 176 M1M 76  AIX EN PROVENCE 1:35:48
298 EYNARD-MACHET SANDRA 559 SEF 22  AIX EN PROVENCE 1:35:55
299 RIGAUD CELINE 381 SEF 23  FOULEE DE GREASQUE 1:35:57
300 LOIZEAU FREDERIC 263 M1M 77  ST GELY DU FESC 34 1:35:58
301 RISSE MARION 383 SEF 24  AIX EN PROVENCE 1:35:59
302 GABAY MILENE 163 SEF 25  MARSEILLE 1:36:02
303 BONNET ARNAUD 51 M1M 78  TRETS 1:36:04
304 BOUTEILLE CYRIL 62 M1M 79  TRETS 1:36:09
305 SANTIAGO HUGO 405 ESM 5  ST ANDIOL 1:36:49
306 FATH BERTRAND 535 SEM 118  MARIGNANE 1:37:08
307 LHUILLIER CEDRIC 261 M1M 80  CABRIES 1:37:10
308 KUHLMANN ANETTE 232 M2F 3  AIX ATHLE PROVENCE 1:37:22
309 VANHULLE PHILIPPE 447 M2M 47  MARATH ADDI TEAMETTE 1:37:23
310 LEYRONAS JEAN-PAUL 260 M2M 48  CABBA 1:37:24
311 POMPIGNOLI JULIEN 357 SEM 119  PIOLENC 1:37:39
312 BARAER QUENTIN 25 SEM 120  AIX EN PROVENCE 1:37:56
313 LUCA LAURIANNE 548 SEF 26  TRETS 1:37:58
314 PEDRON GREGORY 483 SEM 121  DECATH BOUC BEL AIR 1:38:01
315 MARTIN JESSICA 480 SEF 27  DECATH BOUC BEL AIR 1:38:02
316 QUILICI FRANCOIS 369 M2M 49  MARSEILLE 1:38:04
317 BOSSE BRUNO 54 M2M 50  GARDANNE 1:38:08
318 RUFF NICOLAS 398 M1M 81  AIX EN PROVENCE 1:38:12
319 COURTIER BENOIT 108 SEM 122  MARIGNANE 1:38:17
320 PIVON PATRICK 353 M1M 82  FOULEE DE GREASQUE 1:38:19
321 MARTIN CELINE 284 M1F 19  BOUC BEL AIR 1:38:19
322 SIMIONE ERIC 423 M1M 83  SIMIANE COLLONGUE 1:38:21
323 SIMIONE CHRISTELLE 422 M1F 20  SIMIANE COLLONGUE 1:38:22
324 FAVALE DIMITRI 152 SEM 123  GARDANNE 1:38:24
325 ORY FRANCOIS 330 SEM 124  GARDANNE 1:38:25
326 RUBIO AVELINO 397 M3M 3  COURIR AU ROVE 1:38:27
327 GRIFFON LAURE 204 M1F 21  LUYNES 1:38:37
328 GRIFFON YANN 205 M1M 84  LUYNES 1:38:40
329 LAUGIER ROMAIN 244 SEM 125  LES PENNES MBEAU 1:38:43
330 MARIN ADRIEN 277 SEM 126  CADEROUSSE 1:38:52
331 BUSETTA LUDOVIC 75 SEM 127  ST GENIES DE COMOLAS 1:38:58
332 BECHET SIMON 533 SEM 128  SALON TRIATHLON 1:38:58
333 RIBIERE MARION 379 SEF 28  USC SEPTEMES 1:39:00
334 COCOREL JEAN-MARIE 101 M1M 85  TRETS 1:39:05
335 GERARD SOPHIE 187 M1F 22  TRETS 1:39:06
336 BEAUME ANNICK 32 M1F 23  OCC COURSE A PIED 1:39:17
337 CURTI LAURENT 475 M1M 86  DECATH BOUC BEL AIR 1:39:19
338 CLARY LORENZA 98 M1F 24  MARIGNANE 1:39:21
339 ROUX MYLENE 393 M1F 25  FOS OLYMPIQUE CLUB 1:39:22
340 ORDIONI JEAN-LOUIS 329 M3M 4  AUBAGNE 1:39:28
341 MAINIERO FRANCK 273 M1M 87  J AIME COURIR 1:39:34
342 ARNAUBEC NICOLAS 15 SEM 129  FUVEAU 1:39:41
343 JARRY LUCENIE 221 M1F 26  FOULEE DE GREASQUE 1:39:44
344 GERMOND LUCIE 546 SEF 29  FUVEAU 1:39:46
345 ONEN NICOLAS 522 SEM 130  BOUC BEL AIR 1:39:59
346 LE NY VALERIE 249 M1F 27  BOUC BEL AIR 1:40:05
347 MUNIER FANNY 317 SEF 30  SISTERON 1:40:07
348 DY SEVERINE 144 M1F 28  TRIATHL AIX 1:40:13
349 RODRIGUEZ PATRICK 386 M2M 51  BOUC BEL AIR 1:40:20
350 PERALTA INGRID 342 M1F 29  OCC COURSE A PIED 1:40:21
351 ARRIGHI JEAN-PHILIPPE 16 M1M 88  ROGNAC 1:40:22
352 TAILLANDIER JENNYFER 562 SEF 31  MARSEILLE 1:40:26
353 ROUX NINON 394 SEF 32  MARSEILLE 1:40:28
354 JECKER JULIE 223 SEF 33  CABBA 1:40:31
355 VIX KEVIN 464 SEM 131  EGUILLES 1:40:42
356 ADAMSKI ELSA 545 M1F 30  CLES GARDANNE 1:40:46
357 MARRONY SEVERINE 280 M1F 31  COURIR A FUVEAU 1:40:59
358 MARTINASSO THIERRY 530 M2M 52  CIGALES RACING 1:41:02
359 VARRAL ROGER 450 M3M 5  AS HOPITAL ST JOSEPH 1:41:04
360 GAVOTY MARION 181 M2F 4  CABBA 1:41:11
361 BASTARD CAMILLE 471 SEF 34  DECATH BOUC BEL AIR 1:41:14
362 REAL FABIEN 487 SEM 132  DECATH BOUC BEL AIR 1:41:15
363 LATIL D ALBERTAS DANIELLE 243 M2F 5  BOUC BEL AIR 1:41:20
364 ROUX JEAN-MANUEL 392 SEM 133  MARSEILLE 1:41:21
365 BOULESTIN CYRILLE 59 M1M 89  TRETS 1:41:25
366 GREGU VERONIQUE 203 M2F 6  AIRBUS HELICOPTERS 1:41:52
367 DUNEVON BERNARD 140 M3M 6  LUYNES 1:41:57
368 VINCOURT-MESTRIES KARINE 553 M1F 32  AIX ATHLE PROVENCE 1:42:00
369 CAVA QUENTIN 474 SEM 134  DECATH BOUC BEL AIR 1:42:01
370 DE GROOT MAX 495 M2M 53  LA BOUILLADISSE 1:42:07
371 TOUSSAINT CELINE 438 SEF 35  FOS OLYMPIQUE CLUB 1:42:08
372 DAVAINE HERVE 111 M2M 54  AIX ATHLE PROVENCE 1:42:09
373 HERANG CHRISTINE 210 M1F 33  SALIN DE GIRAUD 1:42:12
374 RANSAN PATRICIA 372 M1F 34  SALIN DE GIRAUD 1:42:14
375 TITOTTO MANDY 434 M1F 35  OCC COURSE A PIED 1:42:25
376 DE GROOT TANGUY 496 JUM 3  LA BOUILLADISSE 1:42:40
377 CAMELIERE PERRINE 80 SEF 36  MARSEILLE 1:42:42
378 CAMELIERE MATHILDE 79 SEF 37  CHATEAUNEUF LES M 1:42:44
379 GIRARD MARION 194 M1F 36  OCC COURSE A PIED 1:42:56
380 GIOIOSA DIDIER 191 M2M 55  CSPA 1:42:59
381 LASSUS CYRIL 241 M1M 90  PUYRICARD 1:43:06
382 KOCIAN GISELE 229 M1F 37  CSP CG 13 1:43:12
383 DELRUE GREGOIRE 119 M1M 91  CSP CG 13 1:43:13
384 BATRELLE VIRGINIE 31 M1F 38  AIX EN PROVENCE 1:43:31
385 LEMARECHAL BERTRAND 254 M2M 56  TRIATHL AIX 1:43:31
386 LAZARINI AURELIEN 246 SEM 135  DECATH BOUC BEL AIR 1:43:48
387 SURBLED MARC 428 M2M 57  A NOUS LA VICTOIRE 1:43:50
388 BOUVIER FLORIAN 63 M1M 92  CLES GARDANNE 1:44:18
389 FERRER CYRIL 156 SEM 136  SEPTEMES 1:44:25
390 DUMAINE ERROL 138 JUM 4  CAF GARDANNE 1:44:27
391 DUCLOS JULIE 135 SEF 38  MARSEILLE 1:44:38
392 PIRRO NICOLAS 352 M1M 93  CABBA 1:44:39
393 VIALA FREDERIQUE 454 M1F 39  CAF GARDANNE 1:44:40
394 ALLARD JEAN-CHRISTOPHE 9 M2M 58  BOUC BEL AIR 1:44:43
395 MENARD NICOLAS 295 M1M 94  BOUC BEL AIR 1:44:45
396 MARTIN FLORIAN 285 SEM 137  GIGNAC LA NERTHE 1:44:45
397 MAY ADRIAN 290 M1M 95  ST MAXIMIN LA STE B 1:45:07
398 DERDERIAN JEAN MARC 122 M2M 59  CLES GARDANNE 1:45:24
399 MINNE MATHILDE 302 SEF 39  MEYRARGUES 1:45:41
400 KUNZ DE MAREUIL VERONIQUE 233 M1F 40  BOUC BEL AIR 1:45:43
401 REYNAUD SEBASTIEN 378 M1M 96  GARDANNE 1:45:45
402 HOCQUET SANDRINE 214 M1F 41  BOUC BEL AIR 1:45:54
403 VAHANIAN DENIS 444 M2M 60  SPEEDY CLUB PROVENCE 1:45:56
404 REBUFFEL PASCALE 374 M1F 42  BOUC BEL AIR 1:46:04
405 GERARD JEROME 186 M1M 97  TRETS 1:46:05
406 BAILLE CLAUDE 24 M1M 98  MARSEILLE 1:46:16
407 PAUL ANNIE 339 M3F 3  ACM UST ST TROPEZ 1:46:20
408 BRUN CEDRIC 72 M1M 99  MARSEILLE 1:46:23
409 VIGUIER RODOLPHE 457 SEM 138  MARSEILLE 1:46:23
410 BOUZIAT LORLYNE 64 M1F 43  NICE 1:46:41
411 DERHI NICOLAS 123 SEM 139  GARDANNE 1:46:53
412 DURR GUILLAUME 143 M1M 100  GARDANNE 1:47:07
413 GEMBLE MICHEL 526 M3M 7  VILLLIERS LES HTS 89 1:47:13
414 GIORDANO MARIE-PIERRE 192 M1F 44  MARSEILLE 1:47:15
415 BOURVEAU PIERRE YVES 61 M1M 101  HYERES 1:47:17
416 ROY ALEXANDRE 396 M1M 102  CABRIES 1:47:23
417 POLI FLORIAN 356 SEM 140  BOUC BEL AIR 1:47:42
418 DUPASQUIER FLORENT 141 SEM 141  BOUC BEL AIR 1:47:46
419 GENEVOIS FABIEN 184 SEM 142  ATHLETIC BERRE CLUB 1:47:49
420 TRONEL DAVID 440 M1M 103  VITROLLES 1:47:50
421 TZIERI STEPHANE 443 M2M 61  A VOS BASKETS ISTRES 1:47:51
422 GELLY AGNES 182 M1F 45  ROGNAC 1:47:53
423 GANDEBOEUF JONATHAN 171 SEM 143  ROGNAC 1:47:55
424 POINT LAETITIA 355 M1F 46  LA SEYNE SUR MER 1:47:56
425 POINT JEROME 354 M1M 104  LA SEYNE SUR MER 1:47:58
426 BIONDI LOUIS 43 M2M 62  AIX EN PROVENCE 1:47:59
427 DELEBURY NATHALIE 117 M1F 47  COURIR AU ROVE 1:48:02
428 DOUCE PEGGY 132 M1F 48  COURIR AU ROVE 1:48:04
429 LOPEZ JENNIFER 264 SEF 40  FUVEAU 1:48:06
430 RIVIER CHRISTELLE 543 SEF 41  CLES GARDANNE 1:48:11
431 NIVARD CELINE 323 SEF 42  BOXE EVENEMENT 13 1:48:28
432 JOUVENCEL ALEXA 227 SEF 43  BOXE EVENEMENT 13 1:48:29
433 MARROT ANNABEL 281 M1F 49  MARIGNANE 1:48:45
434 MARROT BENOIT 282 M1M 105  MARIGNANE 1:48:45
435 DREVET JULIEN 133 M1M 106  MALLEMORT 1:48:56
436 CHEVALIER FREDERICK 547 M2M 63  MARIGNANE 1:48:59
437 BOUZID MALEK 65 M1M 107  MALLEMORT 1:49:00
438 MENZOYAN AURELIE 296 SEF 44  PEYPIN 1:49:28
439 BAYLE OLIVIER 552 M1M 108  USC SEPTEMES 1:49:29
440 GALANT PAULINE 169 SEF 45  PARIS 1:49:52
441 SAVORNIN INGRID 412 M1F 50  MARIGNANE 1:50:14
442 SAVORNIN NORBERT 413 M1M 109  MARIGNANE 1:50:16
443 BAILET CHRISTOPHE 554 M1M 110  LE THOR 1:50:21
444 VANNIER LAURE 555 M1F 51  BOUC BEL AIR 1:50:24
445 CANTERINI GILLES 81 M2M 64  EGUILLES 1:50:28
446 CASUSO VIRGINIE 87 M1F 52  AGAY 83 1:50:31
447 SCHWARTZ ALEXANDRE 415 M1M 111  BOUC BEL AIR 1:50:38
448 GRAS CLAIRE 200 M1F 53  MARSEILLE 1:50:49
449 VALLIEN STEPHANE 445 M2M 65  VITROLLES 1:51:44
450 AMEDEO MARINA 11 SEF 46  VITROLLES 1:52:14
451 ESQUIROL DELPHINE 146 SEF 47  VERNEGUES 1:52:21
452 MONROSE MATHIEU 305 SEM 144  NICE 1:52:45
453 TURINI MARIE 441 SEF 48  CLES GARDANNE 1:52:50
454 ANDREIS LAURENCE 12 M2F 7  CLES GARDANNE 1:52:51
455 VERLAQUE JUSTINE 452 SEF 49  CLES GARDANNE 1:53:00
456 CHORNET BRUNO 95 M2M 66  CLES GARDANNE 1:53:01
457 GAGE LESLIE 165 ESF 2  BOUC BEL AIR 1:53:14
458 GAGE HERVE 164 M2M 67  BOUC BEL AIR 1:53:15
459 HOLVECK PAULINE 215 M1F 54  CABRIES 1:53:24
460 CIONI THIERRY 97 M2M 68  BOUC BEL AIR 1:53:31
461 BREGLIANO DELPHINE 68 SEF 50  USC SEPTEMES 1:53:40
462 LUPPI JEAN FREDERIC 268 M1M 112  MARSEILLE 1:53:41
463 ABBRUZZINO HELEN 126 M2F 8  CLES GARDANNE 1:53:44
464 CAR JEAN-CHRISTOPHE 491 M2M 69  CLES GARDANNE 1:53:45
465 MOLL STEPHANE 303 M1M 113  BOUC BEL AIR 1:53:46
466 IRACE PATRICIA 218 M2F 9  CLES GARDANNE 1:54:03
467 CARTA JOEL 84 M2M 70  CLES GARDANNE 1:54:04
468 BENDRER LARBI 472 M2M 71  DECATH BOUC BEL AIR 1:55:24
469 OUAZANI ISMAEL 481 SEM 145  DECATH BOUC BEL AIR 1:55:25
470 TACQUET ISABELLE 529 SEF 51  GIGNAC LA NERTHE 1:55:48
471 DA CRUS Z JACINTO 528 M1M 114  GIGNAC LA NERTHE 1:55:50
472 HUMBLOT VINCENT 217 SEM 146  PUYLOUBIER 1:55:52
473 PERIER-LESUEUR VALENTINE 344 SEF 52  ROGNAC 1:56:27
474 VAN OVERBECK CAROLINE 446 SEF 53  FUVEAU 1:56:28
475 CHOQUET ESTELLE 94 M1F 55  FUVEAU 1:56:28
476 BONNEL MARION 49 SEF 54  MARSEILLE 1:56:29
477 QUILICI DAVID 368 M1M 115  CUGES LES PINS 1:56:34
478 DAVAINE-LE LAY VALERIE 112 M2F 10  AIX ATHLE PROVENCE 1:56:49
479 AGUIAR YUSKA 6 SEF 55  AIX EN PROVENCE 1:56:50
480 DJELLOULI OURIA 130 SEF 56  MARSEILLE 1:57:55
481 CIANFARANI VANINA 96 M1F 56  OCC COURSE A PIED 1:57:55
482 SAUNIER LAURENT 410 M1M 116  OCC COURSE A PIED 1:57:58
483 TORRES MARIE-CHRISTINE 437 M2F 11  LA VALENTINE 1:58:14
484 KRITICOS ALEXANDRE 231 SEM 147  LE ROVE 1:58:36
485 MONTORO SANDRINE 307 SEF 57  CARRY LE ROUET 2:00:48
486 BONNEVIALE BRICE 52 M1M 117  TRIATHL AIX 2:00:49
487 HELLUIN JEREMY 477 SEM 148  DECATH BOUC BEL AIR 2:00:57
488 VARRAUD LAURENT 451 M1M 118  MARSEILLE 2:01:30
489 GROSSET FLORIAN 206 SEM 149  LE ROVE 2:01:32
490 COUDOULET-GIRARD PATRICE 107 M1M 119  MARSEILLE 2:01:52
491 MOULIN MARION 315 M1F 57  BOUC BEL AIR 2:01:57
492 VARRAL CHRISTINE 449 M2F 12  AS HOPITAL ST JOSEPH 2:02:17
493 COSSON ALAIN 104 M3M 8  SC MARIGNANAIS 2:02:18
494 LAGACHE PHILIPPE 234 M2M 72  BOUC BEL AIR 2:02:39
495 AUTEM OLIVIER 21 M2M 73  ACA 1307 2:02:40
496 DUMAINE ETHEL 139 CAF 1  CAF GARDANNE 2:06:56
497 DUMAINE ELISA 137 SEF 58  BOUC BEL AIR 2:07:05
498 BLACAS MARION 44 SEF 59  ST MAXIMIN LA STE B 2:14:28
499 ASCIONE ALEXANDRA 469 SEF 60  DECATH BOUC BEL AIR 2:15:14
500 PROT JULIE 484 SEF 61  DECATH BOUC BEL AIR 2:15:15
P 1 - P 2
 Recherchez un Nom, un Club, une catégorie ou un N° de Dossard :    

Vous disposez d'un droit d'accès, de modification, de rectification et de suppression des données qui vous concernent (art. 34 de la loi "Informatiques et libertés du 6 janvier 1978). Pour l'exercer, adressez vous à alain
 
Copyright © 1999-2019 Courir en France
Tous droits Réservés